Back to Top

Language: 

My Weather Underground Personal Weather Station Historical Data with Graphs...

Delerius Weather Station Historical Data
Daily Summary for July 1, 2017 Units:  Metric    English   Both
« Previous Day
Next Day »
Daily Weekly Monthly Yearly Custom
  High: Low: Average:
Temperature: 21.9 °C 12.9 °C 16.2 °C
Dew Point: 13.2 °C 9.3 °C 11.9 °C
Humidity: 91 % 48 % 77 %
Wind Speed: 29 km/h 0 km/h 11.9 km/h
Wind Gust: 40.2 km/h - -
Wind:- - WNW
Pressure: 1015.8 hPa 1012.4 hPa -
Precipitation: 0 mm    
Historical Graphs
 
 
Tabular Data for July 1, 2017
Time Temperature Dew Point Pressure Wind Wind Speed Wind Gust Humidity Rainfall Rate (Hourly) solar Conditions
00:03 13.6 °C 11.7 °C 1012.4 hPa NNW 3.2 km/h 14.5 km/h 88 % 0 mm 0 W/m2
00:08 13.6 °C 11.5 °C 1012.4 hPa NW 6.4 km/h 14.5 km/h 87 % 0 mm 0 W/m2
00:13 13.6 °C 11.7 °C 1012.4 hPa NW 6.4 km/h 12.9 km/h 88 % 0 mm 0 W/m2
00:18 13.6 °C 11.7 °C 1012.4 hPa NW 6.4 km/h 16.1 km/h 88 % 0 mm 0 W/m2
00:23 13.6 °C 11.7 °C 1012.8 hPa NW 6.4 km/h 16.1 km/h 88 % 0 mm 0 W/m2
00:28 13.6 °C 11.7 °C 1012.8 hPa NW 6.4 km/h 16.1 km/h 88 % 0 mm 0 W/m2
00:33 13.5 °C 11.6 °C 1012.8 hPa NW 8 km/h 16.1 km/h 88 % 0 mm 0 W/m2
00:39 13.5 °C 11.6 °C 1012.8 hPa NW 9.7 km/h 17.7 km/h 88 % 0 mm 0 W/m2
00:44 13.4 °C 11.6 °C 1012.8 hPa NW 11.3 km/h 20.9 km/h 89 % 0 mm 0 W/m2
00:49 13.4 °C 11.6 °C 1012.8 hPa NW 9.7 km/h 20.9 km/h 89 % 0 mm 0 W/m2
00:54 13.4 °C 11.6 °C 1012.4 hPa NW 8 km/h 16.1 km/h 89 % 0 mm 0 W/m2
00:59 13.4 °C 11.6 °C 1012.4 hPa NW 8 km/h 14.5 km/h 89 % 0 mm 0 W/m2
01:04 13.4 °C 11.6 °C 1012.8 hPa NNW 8 km/h 14.5 km/h 89 % 0 mm 0 W/m2
01:09 13.4 °C 11.6 °C 1012.8 hPa NNW 8 km/h 17.7 km/h 89 % 0 mm 0 W/m2
01:14 13.3 °C 11.5 °C 1012.8 hPa NNW 9.7 km/h 17.7 km/h 89 % 0 mm 0 W/m2
01:19 13.3 °C 11.5 °C 1012.8 hPa NNW 9.7 km/h 19.3 km/h 89 % 0 mm 0 W/m2
01:24 13.3 °C 11.5 °C 1012.8 hPa NNW 11.3 km/h 19.3 km/h 89 % 0 mm 0 W/m2
01:29 13.3 °C 11.7 °C 1012.8 hPa NNW 9.7 km/h 19.3 km/h 90 % 0 mm 0 W/m2
01:34 13.3 °C 11.7 °C 1012.8 hPa NNW 11.3 km/h 20.9 km/h 90 % 0 mm 0 W/m2
01:39 13.3 °C 11.7 °C 1013.1 hPa NW 9.7 km/h 20.9 km/h 90 % 0 mm 0 W/m2
01:44 13.3 °C 11.5 °C 1013.1 hPa NW 8 km/h 14.5 km/h 89 % 0 mm 0 W/m2
01:49 13.3 °C 11.7 °C 1013.1 hPa NW 8 km/h 16.1 km/h 90 % 0 mm 0 W/m2
01:54 13.2 °C 11.6 °C 1013.1 hPa NW 6.4 km/h 16.1 km/h 90 % 0 mm 0 W/m2
01:59 13.2 °C 11.6 °C 1013.1 hPa NW 8 km/h 17.7 km/h 90 % 0 mm 0 W/m2
02:04 13.2 °C 11.6 °C 1013.1 hPa NW 9.7 km/h 17.7 km/h 90 % 0 mm 0 W/m2
02:09 13.2 °C 11.6 °C 1013.1 hPa NW 6.4 km/h 12.9 km/h 90 % 0 mm 0 W/m2
02:14 13.2 °C 11.6 °C 1013.1 hPa NNW 4.8 km/h 12.9 km/h 90 % 0 mm 0 W/m2
02:19 13.2 °C 11.6 °C 1013.1 hPa NNW 4.8 km/h 12.9 km/h 90 % 0 mm 0 W/m2
02:24 13.2 °C 11.6 °C 1013.1 hPa NW 4.8 km/h 12.9 km/h 90 % 0 mm 0 W/m2
02:29 13.1 °C 11.5 °C 1013.1 hPa NW 6.4 km/h 12.9 km/h 90 % 0 mm 0 W/m2
02:34 13.1 °C 11.5 °C 1013.1 hPa NW 4.8 km/h 12.9 km/h 90 % 0 mm 0 W/m2
02:39 13.1 °C 11.5 °C 1013.1 hPa NW 3.2 km/h 9.7 km/h 90 % 0 mm 0 W/m2
02:44 13.1 °C 11.3 °C 1013.1 hPa NW 3.2 km/h 9.7 km/h 89 % 0 mm 0 W/m2
02:49 13.1 °C 11.3 °C 1013.1 hPa NNW 1.6 km/h 9.7 km/h 89 % 0 mm 0 W/m2
02:54 13.1 °C 11.5 °C 1013.1 hPa NNW 3.2 km/h 9.7 km/h 90 % 0 mm 0 W/m2
02:59 13.1 °C 11.3 °C 1013.4 hPa NW 4.8 km/h 9.7 km/h 89 % 0 mm 0 W/m2
03:04 13.1 °C 11.5 °C 1013.4 hPa NW 4.8 km/h 11.3 km/h 90 % 0 mm 0 W/m2
03:09 13.1 °C 11.3 °C 1013.4 hPa WNW 6.4 km/h 11.3 km/h 89 % 0 mm 0 W/m2
03:14 13.1 °C 11.3 °C 1013.4 hPa WNW 6.4 km/h 9.7 km/h 89 % 0 mm 0 W/m2
03:19 13.1 °C 11.5 °C 1013.4 hPa WNW 4.8 km/h 11.3 km/h 90 % 0 mm 0 W/m2
03:25 13 °C 11.4 °C 1013.4 hPa WNW 4.8 km/h 11.3 km/h 90 % 0 mm 0 W/m2
03:30 13 °C 11.4 °C 1013.4 hPa WNW 6.4 km/h 11.3 km/h 90 % 0 mm 0 W/m2
03:35 13 °C 11.4 °C 1013.4 hPa WNW 4.8 km/h 11.3 km/h 90 % 0 mm 0 W/m2
03:40 12.9 °C 11.3 °C 1013.4 hPa NW 4.8 km/h 11.3 km/h 90 % 0 mm 0 W/m2
03:45 12.9 °C 11.3 °C 1013.4 hPa WNW 6.4 km/h 11.3 km/h 90 % 0 mm 0 W/m2
03:50 12.9 °C 11.3 °C 1013.4 hPa NW 4.8 km/h 11.3 km/h 90 % 0 mm 0 W/m2
03:55 12.9 °C 11.3 °C 1013.4 hPa NW 3.2 km/h 9.7 km/h 90 % 0 mm 0 W/m2
04:00 12.9 °C 11.3 °C 1013.4 hPa NW 4.8 km/h 9.7 km/h 90 % 0 mm 0 W/m2
04:05 12.9 °C 11.3 °C 1013.4 hPa WNW 4.8 km/h 9.7 km/h 90 % 0 mm 0 W/m2
04:10 12.9 °C 11.3 °C 1013.8 hPa WNW 6.4 km/h 12.9 km/h 90 % 0 mm 0 W/m2
04:15 12.9 °C 11.3 °C 1013.8 hPa NW 8 km/h 14.5 km/h 90 % 0 mm 0 W/m2
04:17 12.9 °C 11.3 °C 1013.8 hPa NW 8 km/h 14.5 km/h 90 % 0 mm 0 W/m2
04:22 12.9 °C 11.3 °C 1013.8 hPa NW 8 km/h 14.5 km/h 90 % 0 mm 0 W/m2
04:27 12.9 °C 11.3 °C 1013.8 hPa NW 6.4 km/h 14.5 km/h 90 % 0 mm 0 W/m2
04:32 12.9 °C 11.3 °C 1013.8 hPa NNW 4.8 km/h 14.5 km/h 90 % 0 mm 0 W/m2
04:37 12.9 °C 11.3 °C 1013.8 hPa NNW 4.8 km/h 11.3 km/h 90 % 0 mm 0 W/m2
04:42 12.9 °C 11.1 °C 1013.8 hPa NW 4.8 km/h 11.3 km/h 89 % 0 mm 0 W/m2
04:47 12.9 °C 11.1 °C 1013.8 hPa NW 3.2 km/h 11.3 km/h 89 % 0 mm 0 W/m2
04:52 12.9 °C 11.1 °C 1013.8 hPa NNW 1.6 km/h 6.4 km/h 89 % 0 mm 0 W/m2
04:57 12.9 °C 11.1 °C 1013.8 hPa NNW 1.6 km/h 8 km/h 89 % 0 mm 0 W/m2
05:02 12.9 °C 11.1 °C 1014.1 hPa NNW 1.6 km/h 8 km/h 89 % 0 mm 0 W/m2
05:07 12.9 °C 11.3 °C 1014.1 hPa NNW 1.6 km/h 8 km/h 90 % 0 mm 5 W/m2
05:12 12.9 °C 11.3 °C 1014.1 hPa Calm   6.4 km/h 90 % 0 mm 5 W/m2
05:17 12.9 °C 11.3 °C 1014.1 hPa Calm   4.8 km/h 90 % 0 mm 9 W/m2
05:22 12.9 °C 11.3 °C 1014.1 hPa Calm   4.8 km/h 90 % 0 mm 11 W/m2
05:27 12.9 °C 11.3 °C 1014.1 hPa Calm   1.6 km/h 90 % 0 mm 11 W/m2
05:32 12.9 °C 11.3 °C 1014.1 hPa Calm   6.4 km/h 90 % 0 mm 12 W/m2
05:37 12.9 °C 11.3 °C 1014.1 hPa Calm   8 km/h 90 % 0 mm 16 W/m2
05:42 12.9 °C 11.3 °C 1014.1 hPa NNW 1.6 km/h 8 km/h 90 % 0 mm 18 W/m2
05:47 12.9 °C 11.1 °C 1014.1 hPa NNW 1.6 km/h 8 km/h 89 % 0 mm 23 W/m2
05:52 13 °C 11.4 °C 1014.1 hPa Calm   3.2 km/h 90 % 0 mm 26 W/m2
05:57 13.1 °C 11.5 °C 1014.1 hPa Calm     90 % 0 mm 33 W/m2
06:02 13.1 °C 11.7 °C 1014.1 hPa Calm     91 % 0 mm 37 W/m2
06:07 13.1 °C 11.7 °C 1014.1 hPa Calm     91 % 0 mm 42 W/m2
06:12 13.1 °C 11.7 °C 1014.4 hPa Calm   3.2 km/h 91 % 0 mm 49 W/m2
06:17 13.1 °C 11.7 °C 1014.4 hPa NNW 1.6 km/h 3.2 km/h 91 % 0 mm 53 W/m2
06:22 13.1 °C 11.7 °C 1014.4 hPa NNW 1.6 km/h 3.2 km/h 91 % 0 mm 58 W/m2
06:27 13.2 °C 11.8 °C 1014.8 hPa Calm   3.2 km/h 91 % 0 mm 62 W/m2
06:32 13.3 °C 11.9 °C 1014.8 hPa Calm     91 % 0 mm 63 W/m2
06:37 13.3 °C 11.9 °C 1014.8 hPa Calm   9.7 km/h 91 % 0 mm 65 W/m2
06:42 13.3 °C 11.7 °C 1014.8 hPa NNW 1.6 km/h 9.7 km/h 90 % 0 mm 65 W/m2
06:47 13.4 °C 11.8 °C 1014.8 hPa NNW 3.2 km/h 8 km/h 90 % 0 mm 77 W/m2
06:52 13.5 °C 11.7 °C 1014.8 hPa NNW 1.6 km/h 8 km/h 89 % 0 mm 88 W/m2
06:57 13.6 °C 11.8 °C 1014.8 hPa NNW 3.2 km/h 8 km/h 89 % 0 mm 91 W/m2
07:30 14.1 °C 11.6 °C 1014.8 hPa WNW 11.3 km/h 11.3 km/h 85 % 0 mm 101 W/m2
07:45 14.3 °C 11.8 °C 1014.8 hPa WNW 8 km/h 8 km/h 85 % 0 mm 113 W/m2
08:00 14.6 °C 11.9 °C 1014.8 hPa WNW 9.7 km/h 9.7 km/h 84 % 0 mm 328 W/m2
08:15 15.7 °C 11.9 °C 1014.8 hPa West 11.3 km/h 11.3 km/h 78 % 0 mm 426 W/m2
08:30 17.1 °C 11.8 °C 1014.8 hPa West 14.5 km/h 14.5 km/h 71 % 0 mm 476 W/m2
08:45 18.2 °C 12.2 °C 1015.1 hPa WNW 29 km/h 29 km/h 68 % 0 mm 594 W/m2
09:00 18.6 °C 12.8 °C 1015.1 hPa WNW 20.9 km/h 20.9 km/h 69 % 0 mm 400 W/m2
09:18 17.3 °C 12.6 °C 1015.5 hPa NW 14.5 km/h 14.5 km/h 74 % 0 mm 98 W/m2
09:23 17.2 °C 12.7 °C 1015.5 hPa WNW 12.9 km/h 24.1 km/h 75 % 0 mm 95 W/m2
09:28 16.9 °C 12.8 °C 1015.5 hPa WNW 12.9 km/h 24.1 km/h 77 % 0 mm 91 W/m2
09:33 16.6 °C 12.7 °C 1015.5 hPa WNW 14.5 km/h 24.1 km/h 78 % 0 mm 79 W/m2
09:38 16.4 °C 12.7 °C 1015.5 hPa WNW 14.5 km/h 24.1 km/h 79 % 0 mm 120 W/m2
09:43 16.2 °C 12.7 °C 1015.5 hPa WNW 11.3 km/h 24.1 km/h 80 % 0 mm 156 W/m2
09:48 16.2 °C 12.9 °C 1015.5 hPa WNW 9.7 km/h 16.1 km/h 81 % 0 mm 128 W/m2
09:53 16.2 °C 13.1 °C 1015.5 hPa WNW 11.3 km/h 17.7 km/h 82 % 0 mm 120 W/m2
09:58 16 °C 12.9 °C 1015.5 hPa West 12.9 km/h 22.5 km/h 82 % 0 mm 123 W/m2
10:03 15.9 °C 12.8 °C 1015.5 hPa West 14.5 km/h 22.5 km/h 82 % 0 mm 127 W/m2
10:08 15.8 °C 12.7 °C 1015.5 hPa West 16.1 km/h 30.6 km/h 82 % 0 mm 113 W/m2
10:13 15.7 °C 12.8 °C 1015.5 hPa West 16.1 km/h 30.6 km/h 83 % 0 mm 167 W/m2
10:18 15.7 °C 12.8 °C 1015.5 hPa West 14.5 km/h 24.1 km/h 83 % 0 mm 156 W/m2
10:23 15.7 °C 12.8 °C 1015.5 hPa West 14.5 km/h 24.1 km/h 83 % 0 mm 120 W/m2
10:29 15.7 °C 13 °C 1015.5 hPa WNW 12.9 km/h 22.5 km/h 84 % 0 mm 104 W/m2
10:34 15.6 °C 12.9 °C 1015.5 hPa West 14.5 km/h 25.7 km/h 84 % 0 mm 127 W/m2
10:39 15.4 °C 12.7 °C 1015.8 hPa West 17.7 km/h 25.7 km/h 84 % 0 mm 132 W/m2
10:44 15.2 °C 12.5 °C 1015.8 hPa West 17.7 km/h 25.7 km/h 84 % 0 mm 116 W/m2
10:49 15.2 °C 12.7 °C 1015.5 hPa West 16.1 km/h 25.7 km/h 85 % 0 mm 160 W/m2
10:54 15.2 °C 12.7 °C 1015.5 hPa West 14.5 km/h 22.5 km/h 85 % 0 mm 116 W/m2
10:59 15.2 °C 12.5 °C 1015.8 hPa West 14.5 km/h 22.5 km/h 84 % 0 mm 111 W/m2
11:04 15.2 °C 12.5 °C 1015.5 hPa West 14.5 km/h 22.5 km/h 84 % 0 mm 118 W/m2
11:09 15.2 °C 12.5 °C 1015.5 hPa West 12.9 km/h 20.9 km/h 84 % 0 mm 107 W/m2
11:14 15.2 °C 12.5 °C 1015.5 hPa West 14.5 km/h 20.9 km/h 84 % 0 mm 137 W/m2
11:19 15.2 °C 12.5 °C 1015.8 hPa West 12.9 km/h 20.9 km/h 84 % 0 mm 174 W/m2
11:24 15.1 °C 12.2 °C 1015.8 hPa West 12.9 km/h 20.9 km/h 83 % 0 mm 199 W/m2
11:29 15.2 °C 12.3 °C 1015.8 hPa West 14.5 km/h 22.5 km/h 83 % 0 mm 218 W/m2
11:34 15.3 °C 12.4 °C 1015.8 hPa West 12.9 km/h 22.5 km/h 83 % 0 mm 163 W/m2
11:39 15.4 °C 12.3 °C 1015.8 hPa West 12.9 km/h 22.5 km/h 82 % 0 mm 216 W/m2
11:44 15.4 °C 12.3 °C 1015.8 hPa West 16.1 km/h 25.7 km/h 82 % 0 mm 323 W/m2
11:49 15.5 °C 12.6 °C 1015.8 hPa West 14.5 km/h 25.7 km/h 83 % 0 mm 206 W/m2
11:54 15.5 °C 12.4 °C 1015.8 hPa West 12.9 km/h 19.3 km/h 82 % 0 mm 218 W/m2
11:59 15.4 °C 12.5 °C 1015.8 hPa WSW 12.9 km/h 19.3 km/h 83 % 0 mm 260 W/m2
12:04 15.4 °C 12.3 °C 1015.8 hPa WSW 11.3 km/h 19.3 km/h 82 % 0 mm 304 W/m2
12:09 15.7 °C 12.4 °C 1015.5 hPa West 12.9 km/h 19.3 km/h 81 % 0 mm 329 W/m2
12:14 15.8 °C 12.3 °C 1015.5 hPa West 12.9 km/h 20.9 km/h 80 % 0 mm 371 W/m2
12:19 16 °C 12.3 °C 1015.5 hPa WSW 14.5 km/h 24.1 km/h 79 % 0 mm 408 W/m2
12:24 16.2 °C 12.3 °C 1015.8 hPa WSW 16.1 km/h 29 km/h 78 % 0 mm 353 W/m2
12:29 16.4 °C 12.7 °C 1015.8 hPa WSW 12.9 km/h 29 km/h 79 % 0 mm 304 W/m2
12:34 16.6 °C 12.3 °C 1015.8 hPa West 12.9 km/h 25.7 km/h 76 % 0 mm 352 W/m2
12:39 16.8 °C 12.6 °C 1015.8 hPa West 16.1 km/h 30.6 km/h 76 % 0 mm 432 W/m2
12:44 17.1 °C 12.6 °C 1015.5 hPa West 19.3 km/h 33.8 km/h 75 % 0 mm 1260 W/m2
12:49 17.3 °C 12.4 °C 1015.5 hPa West 19.3 km/h 33.8 km/h 73 % 0 mm 1267 W/m2
12:51 17.4 °C 12.7 °C 1015.5 hPa West 17.7 km/h 33.8 km/h 74 % 0 mm 1164 W/m2
12:56 18 °C 12.9 °C 1015.5 hPa West 16.1 km/h 29 km/h 72 % 0 mm 517 W/m2
13:01 18.2 °C 12.4 °C 1015.5 hPa West 16.1 km/h 29 km/h 69 % 0 mm 362 W/m2
13:06 18.2 °C 12.6 °C 1015.5 hPa West 16.1 km/h 30.6 km/h 70 % 0 mm 369 W/m2
13:11 18.3 °C 12.5 °C 1015.5 hPa West 16.1 km/h 30.6 km/h 69 % 0 mm 1079 W/m2
13:16 18.5 °C 12.3 °C 1015.5 hPa West 19.3 km/h 33.8 km/h 67 % 0 mm 972 W/m2
13:21 18.7 °C 12.4 °C 1015.5 hPa West 19.3 km/h 33.8 km/h 67 % 0 mm 947 W/m2
13:26 18.9 °C 12.6 °C 1015.1 hPa West 19.3 km/h 32.2 km/h 67 % 0 mm 983 W/m2
13:31 19.2 °C 12.7 °C 1015.1 hPa West 20.9 km/h 32.2 km/h 66 % 0 mm 919 W/m2
13:36 19.4 °C 12.4 °C 1015.1 hPa West 17.7 km/h 32.2 km/h 64 % 0 mm 921 W/m2
13:41 19.6 °C 12.1 °C 1015.1 hPa West 17.7 km/h 30.6 km/h 62 % 0 mm 932 W/m2
13:46 19.6 °C 12.1 °C 1015.1 hPa West 20.9 km/h 37 km/h 62 % 0 mm 940 W/m2
13:51 19.4 °C 12.2 °C 1015.1 hPa WSW 19.3 km/h 37 km/h 63 % 0 mm 949 W/m2
13:56 19.3 °C 12.1 °C 1015.1 hPa WSW 17.7 km/h 35.4 km/h 63 % 0 mm 949 W/m2
14:01 19.5 °C 12.7 °C 1015.1 hPa West 14.5 km/h 25.7 km/h 65 % 0 mm 1016 W/m2
14:06 19.8 °C 12.6 °C 1015.1 hPa West 14.5 km/h 25.7 km/h 63 % 0 mm 953 W/m2
14:11 19.9 °C 11.9 °C 1015.1 hPa West 16.1 km/h 25.7 km/h 60 % 0 mm 911 W/m2
14:16 20.2 °C 12.4 °C 1014.8 hPa WSW 14.5 km/h 29 km/h 61 % 0 mm 896 W/m2
14:21 20.3 °C 12 °C 1014.8 hPa WSW 14.5 km/h 29 km/h 59 % 0 mm 803 W/m2
14:26 20.6 °C 12.3 °C 1014.8 hPa West 16.1 km/h 33.8 km/h 59 % 0 mm 916 W/m2
14:31 20.5 °C 10.9 °C 1014.8 hPa West 17.7 km/h 33.8 km/h 54 % 0 mm 854 W/m2
14:36 20.7 °C 10.5 °C 1014.8 hPa West 17.7 km/h 33.8 km/h 52 % 0 mm 874 W/m2
14:41 20.8 °C 9.7 °C 1014.8 hPa West 16.1 km/h 30.6 km/h 49 % 0 mm 847 W/m2
14:46 20.6 °C 9.5 °C 1014.8 hPa West 17.7 km/h 30.6 km/h 49 % 0 mm 858 W/m2
14:51 20.4 °C 9.3 °C 1014.8 hPa WSW 17.7 km/h 32.2 km/h 49 % 0 mm 900 W/m2
14:57 20.7 °C 9.6 °C 1014.8 hPa West 16.1 km/h 32.2 km/h 49 % 0 mm 907 W/m2
15:01 20.9 °C 9.8 °C 1014.8 hPa West 17.7 km/h 30.6 km/h 49 % 0 mm 329 W/m2
15:02 20.9 °C 9.8 °C 1014.8 hPa West 17.7 km/h 30.6 km/h 49 % 0 mm 329 W/m2
15:12 20.8 °C 9.7 °C 1014.8 hPa West 17.7 km/h 32.2 km/h 49 % 0 mm 563 W/m2
15:17 20.7 °C 9.9 °C 1014.4 hPa West 17.7 km/h 32.2 km/h 50 % 0 mm 831 W/m2
15:22 20.9 °C 9.5 °C 1014.8 hPa WSW 17.7 km/h 32.2 km/h 48 % 0 mm 846 W/m2
15:27 21 °C 9.6 °C 1014.4 hPa WSW 17.7 km/h 30.6 km/h 48 % 0 mm 891 W/m2
15:32 21 °C 9.9 °C 1014.4 hPa WSW 19.3 km/h 33.8 km/h 49 % 0 mm 330 W/m2
15:37 20.7 °C 10.2 °C 1014.4 hPa WSW 19.3 km/h 33.8 km/h 51 % 0 mm 459 W/m2
15:42 20.7 °C 10.2 °C 1014.4 hPa West 19.3 km/h 35.4 km/h 51 % 0 mm 503 W/m2
15:47 20.7 °C 9.9 °C 1014.4 hPa West 20.9 km/h 35.4 km/h 50 % 0 mm 1018 W/m2
15:52 21.1 °C 10.3 °C 1014.4 hPa West 20.9 km/h 37 km/h 50 % 0 mm 1053 W/m2
15:57 21.2 °C 10.3 °C 1014.4 hPa West 20.9 km/h 37 km/h 50 % 0 mm 281 W/m2
16:03 21.1 °C 10.8 °C 1014.4 hPa West 17.7 km/h 32.2 km/h 52 % 0 mm 914 W/m2
16:08 21.5 °C 11.2 °C 1014.4 hPa West 16.1 km/h 29 km/h 52 % 0 mm 868 W/m2
16:13 21.8 °C 11.5 °C 1014.4 hPa West 16.1 km/h 29 km/h 52 % 0 mm 793 W/m2
16:18 21.9 °C 11.6 °C 1014.4 hPa West 17.7 km/h 29 km/h 52 % 0 mm 800 W/m2
16:23 21.8 °C 11.8 °C 1014.4 hPa West 17.7 km/h 29 km/h 53 % 0 mm 749 W/m2
16:28 21.8 °C 11.8 °C 1014.1 hPa West 19.3 km/h 37 km/h 53 % 0 mm 675 W/m2
16:33 21.6 °C 11.9 °C 1014.4 hPa West 19.3 km/h 37 km/h 54 % 0 mm 274 W/m2
16:38 21.6 °C 12.2 °C 1014.1 hPa West 17.7 km/h 32.2 km/h 55 % 0 mm 659 W/m2
16:44 21.5 °C 12.1 °C 1014.1 hPa West 17.7 km/h 32.2 km/h 55 % 0 mm 260 W/m2
16:49 21.3 °C 11.9 °C 1014.1 hPa West 19.3 km/h 32.2 km/h 55 % 0 mm 221 W/m2
16:54 21.1 °C 12.2 °C 1014.1 hPa West 17.7 km/h 32.2 km/h 57 % 0 mm 241 W/m2
16:59 20.8 °C 11.7 °C 1014.1 hPa West 17.7 km/h 33.8 km/h 56 % 0 mm 197 W/m2
17:04 20.6 °C 12.1 °C 1014.1 hPa West 17.7 km/h 33.8 km/h 58 % 0 mm 213 W/m2
17:09 20.4 °C 11.8 °C 1014.1 hPa West 17.7 km/h 32.2 km/h 58 % 0 mm 299 W/m2
17:14 20.3 °C 11.8 °C 1014.1 hPa West 17.7 km/h 32.2 km/h 58 % 0 mm 320 W/m2
17:19 20.3 °C 12 °C 1014.1 hPa West 17.7 km/h 29 km/h 59 % 0 mm 232 W/m2
17:24 20.2 °C 11.9 °C 1014.1 hPa West 17.7 km/h 29 km/h 59 % 0 mm 202 W/m2
17:29 20.1 °C 12.1 °C 1014.1 hPa West 17.7 km/h 33.8 km/h 60 % 0 mm 163 W/m2
17:34 20 °C 12 °C 1014.1 hPa West 17.7 km/h 33.8 km/h 60 % 0 mm 134 W/m2
17:39 19.8 °C 12.1 °C 1014.1 hPa West 17.7 km/h 33.8 km/h 61 % 0 mm 163 W/m2
17:44 19.8 °C 12.3 °C 1014.1 hPa West 14.5 km/h 29 km/h 62 % 0 mm 179 W/m2
17:49 19.8 °C 12.1 °C 1014.1 hPa West 14.5 km/h 25.7 km/h 61 % 0 mm 199 W/m2
17:54 19.7 °C 11.9 °C 1014.1 hPa WNW 17.7 km/h 30.6 km/h 61 % 0 mm 123 W/m2
17:59 19.6 °C 12.1 °C 1014.1 hPa West 16.1 km/h 30.6 km/h 62 % 0 mm 97 W/m2
18:04 19.3 °C 11.8 °C 1014.1 hPa West 16.1 km/h 25.7 km/h 62 % 0 mm 139 W/m2
18:09 19.2 °C 12 °C 1014.1 hPa West 16.1 km/h 24.1 km/h 63 % 0 mm 144 W/m2
18:14 19.2 °C 12.2 °C 1014.1 hPa West 14.5 km/h 22.5 km/h 64 % 0 mm 165 W/m2
18:19 19.2 °C 12.2 °C 1014.1 hPa West 14.5 km/h 25.7 km/h 64 % 0 mm 176 W/m2
18:24 19.2 °C 12.2 °C 1014.1 hPa WNW 16.1 km/h 25.7 km/h 64 % 0 mm 271 W/m2
18:29 19.3 °C 12.3 °C 1014.1 hPa WNW 14.5 km/h 22.5 km/h 64 % 0 mm 320 W/m2
18:34 19.5 °C 12.5 °C 1014.1 hPa WNW 14.5 km/h 20.9 km/h 64 % 0 mm 320 W/m2
18:39 19.6 °C 12.4 °C 1014.4 hPa WNW 16.1 km/h 30.6 km/h 63 % 0 mm 415 W/m2
18:44 19.3 °C 12.1 °C 1014.4 hPa WNW 17.7 km/h 30.6 km/h 63 % 0 mm 118 W/m2
18:49 19 °C 12.1 °C 1014.4 hPa West 16.1 km/h 29 km/h 64 % 0 mm 109 W/m2
18:54 18.7 °C 12 °C 1014.4 hPa WNW 16.1 km/h 33.8 km/h 65 % 0 mm 91 W/m2
18:59 18.4 °C 12.2 °C 1014.4 hPa WNW 16.1 km/h 33.8 km/h 67 % 0 mm 84 W/m2
19:04 18.3 °C 12.1 °C 1014.4 hPa WNW 14.5 km/h 30.6 km/h 67 % 0 mm 181 W/m2
19:09 18.1 °C 12.1 °C 1014.4 hPa WNW 16.1 km/h 30.6 km/h 68 % 0 mm 192 W/m2
19:14 18.1 °C 12.1 °C 1014.4 hPa West 14.5 km/h 29 km/h 68 % 0 mm 142 W/m2
19:19 18.1 °C 12.3 °C 1014.4 hPa West 11.3 km/h 20.9 km/h 69 % 0 mm 144 W/m2
19:25 18.1 °C 12.3 °C 1014.4 hPa West 12.9 km/h 30.6 km/h 69 % 0 mm 151 W/m2
19:30 18 °C 12.2 °C 1014.4 hPa West 17.7 km/h 33.8 km/h 69 % 0 mm 178 W/m2
19:35 18 °C 12.2 °C 1014.4 hPa West 20.9 km/h 37 km/h 69 % 0 mm 225 W/m2
19:40 18.1 °C 12.3 °C 1014.4 hPa West 22.5 km/h 37 km/h 69 % 0 mm 241 W/m2
19:41 18.1 °C 12.3 °C 1014.4 hPa West 22.5 km/h 38.6 km/h 69 % 0 mm 241 W/m2
19:46 17.8 °C 12.1 °C 1014.4 hPa West 22.5 km/h 38.6 km/h 69 % 0 mm 70 W/m2
19:51 17.7 °C 12.4 °C 1014.4 hPa WNW 20.9 km/h 37 km/h 71 % 0 mm 181 W/m2
19:56 17.8 °C 12.4 °C 1014.4 hPa WNW 17.7 km/h 32.2 km/h 71 % 0 mm 141 W/m2
20:01 17.7 °C 12.4 °C 1014.4 hPa West 16.1 km/h 30.6 km/h 71 % 0 mm 90 W/m2
20:07 17.5 °C 12.4 °C 1014.4 hPa West 16.1 km/h 29 km/h 72 % 0 mm 56 W/m2
20:12 17.3 °C 12.4 °C 1014.4 hPa West 16.1 km/h 29 km/h 73 % 0 mm 70 W/m2
20:17 17 °C 12.6 °C 1014.4 hPa West 16.1 km/h 29 km/h 75 % 0 mm 83 W/m2
20:22 16.8 °C 12.6 °C 1014.4 hPa West 14.5 km/h 22.5 km/h 76 % 0 mm 70 W/m2
20:27 16.7 °C 12.7 °C 1014.4 hPa West 12.9 km/h 20.9 km/h 77 % 0 mm 49 W/m2
20:32 16.6 °C 12.7 °C 1014.4 hPa West 11.3 km/h 24.1 km/h 78 % 0 mm 58 W/m2
20:37 16.4 °C 12.7 °C 1014.4 hPa West 12.9 km/h 24.1 km/h 79 % 0 mm 58 W/m2
20:42 16.4 °C 12.7 °C 1014.4 hPa West 12.9 km/h 24.1 km/h 79 % 0 mm 54 W/m2
20:47 16.3 °C 12.7 °C 1014.4 hPa West 14.5 km/h 32.2 km/h 79 % 0 mm 54 W/m2
20:52 16.2 °C 12.7 °C 1014.4 hPa West 16.1 km/h 32.2 km/h 80 % 0 mm 56 W/m2
20:57 16.1 °C 12.7 °C 1014.4 hPa West 19.3 km/h 40.2 km/h 80 % 0 mm 47 W/m2
21:02 16 °C 12.7 °C 1014.4 hPa West 19.3 km/h 40.2 km/h 81 % 0 mm 33 W/m2
21:07 15.9 °C 12.7 °C 1014.4 hPa West 17.7 km/h 30.6 km/h 81 % 0 mm 28 W/m2
21:12 15.8 °C 12.7 °C 1014.4 hPa WNW 16.1 km/h 29 km/h 82 % 0 mm 21 W/m2
21:17 15.8 °C 12.7 °C 1014.4 hPa WNW 14.5 km/h 24.1 km/h 82 % 0 mm 16 W/m2
21:22 15.7 °C 12.8 °C 1014.8 hPa West 12.9 km/h 24.1 km/h 83 % 0 mm 16 W/m2
21:27 15.6 °C 12.7 °C 1014.4 hPa West 14.5 km/h 22.5 km/h 83 % 0 mm 11 W/m2
21:32 15.5 °C 12.8 °C 1014.4 hPa West 14.5 km/h 22.5 km/h 84 % 0 mm 11 W/m2
21:37 15.4 °C 12.7 °C 1014.4 hPa West 12.9 km/h 20.9 km/h 84 % 0 mm 9 W/m2
21:42 15.3 °C 12.8 °C 1014.4 hPa West 11.3 km/h 19.3 km/h 85 % 0 mm 5 W/m2
21:47 15.2 °C 12.7 °C 1014.4 hPa West 12.9 km/h 20.9 km/h 85 % 0 mm 5 W/m2
21:51 15.2 °C 12.7 °C 1014.4 hPa West 12.9 km/h 20.9 km/h 85 % 0 mm 0 W/m2
21:56 15.1 °C 12.8 °C 1014.8 hPa West 12.9 km/h 19.3 km/h 86 % 0 mm 0 W/m2
22:01 15.1 °C 12.8 °C 1014.8 hPa West 11.3 km/h 22.5 km/h 86 % 0 mm 0 W/m2
22:06 15.1 °C 12.8 °C 1014.4 hPa West 11.3 km/h 22.5 km/h 86 % 0 mm 0 W/m2
22:11 15.1 °C 12.8 °C 1014.4 hPa West 11.3 km/h 20.9 km/h 86 % 0 mm 0 W/m2
22:16 15.1 °C 12.8 °C 1014.8 hPa West 9.7 km/h 16.1 km/h 86 % 0 mm 0 W/m2
22:21 15.1 °C 12.8 °C 1014.8 hPa WSW 8 km/h 14.5 km/h 86 % 0 mm 0 W/m2
22:26 15.1 °C 12.8 °C 1014.8 hPa WSW 8 km/h 14.5 km/h 86 % 0 mm 0 W/m2
22:31 15.1 °C 12.8 °C 1014.8 hPa West 4.8 km/h 14.5 km/h 86 % 0 mm 0 W/m2
22:36 15.1 °C 12.8 °C 1014.8 hPa West 3.2 km/h 11.3 km/h 86 % 0 mm 0 W/m2
22:41 15.1 °C 12.8 °C 1014.8 hPa WSW 3.2 km/h 9.7 km/h 86 % 0 mm 0 W/m2
22:46 15.1 °C 12.8 °C 1014.8 hPa WSW 3.2 km/h 9.7 km/h 86 % 0 mm 0 W/m2
22:51 15.1 °C 12.8 °C 1014.8 hPa WSW 4.8 km/h 12.9 km/h 86 % 0 mm 0 W/m2
22:56 15.2 °C 12.9 °C 1014.8 hPa WSW 9.7 km/h 20.9 km/h 86 % 0 mm 0 W/m2
23:01 15.2 °C 12.9 °C 1014.8 hPa West 11.3 km/h 20.9 km/h 86 % 0 mm 0 W/m2
23:06 15.2 °C 12.9 °C 1014.8 hPa West 11.3 km/h 22.5 km/h 86 % 0 mm 0 W/m2
23:11 15.2 °C 12.9 °C 1014.8 hPa West 11.3 km/h 25.7 km/h 86 % 0 mm 0 W/m2
23:16 15.2 °C 13.1 °C 1014.8 hPa West 11.3 km/h 25.7 km/h 87 % 0 mm 0 W/m2
23:21 15.2 °C 13.1 °C 1014.8 hPa West 9.7 km/h 19.3 km/h 87 % 0 mm 0 W/m2
23:26 15.2 °C 13.1 °C 1014.8 hPa West 8 km/h 16.1 km/h 87 % 0 mm 0 W/m2
23:31 15.1 °C 12.9 °C 1015.1 hPa West 6.4 km/h 14.5 km/h 87 % 0 mm 0 W/m2
23:36 15.1 °C 12.9 °C 1015.1 hPa WNW 9.7 km/h 19.3 km/h 87 % 0 mm 0 W/m2
23:41 15.2 °C 13.2 °C 1015.1 hPa West 11.3 km/h 19.3 km/h 88 % 0 mm 0 W/m2
23:46 15.2 °C 13.2 °C 1015.1 hPa West 12.9 km/h 35.4 km/h 88 % 0 mm 0 W/m2
23:51 15 °C 12.7 °C 1015.5 hPa WNW 16.1 km/h 35.4 km/h 86 % 0 mm 0 W/m2
23:56 14.9 °C 12.2 °C 1015.5 hPa NW 17.7 km/h 33.8 km/h 84 % 0 mm 0 W/m2
Delerius-Weather
Compliments of Weather Underground - 2.25 mb

Data updates at regular intervals.